Location: �terpigny
(49.8910°N, 2.9249°E)
Time: 06:50:25
(UTC+00:00)

CUBESAT XI-V - Pass Details

Date: 27 June 2022
Orbit: 667 x 690 km, 98.1° (Epoch: 08 August)

Event Time Altitude Azimuth Distance (km) Brightness Sun altitude
Rises 23:32:04 0° 105° (ESE) 3,027 ? -16.7°
Reaches altitude 10° 23:35:44 10° 74° (ENE) 2,113 ? -16.7°
Maximum altitude 23:37:23 12° 53° (NE) 1,990 ? -16.8°
Drops below altitude 10° 23:39:02 10° 32° (NNE) 2,114 ? -16.8°
Sets 23:42:42 0° 2° (N) 3,029 ? -16.8°
